DW2819 Weather Reports


time (UTC)temp
C
wind
direction
speed
KPH
gust
KPH
rain 1hr
cm
rain 24hr
cm
rain mn
cm
humidity
%
barometer
mb
20260506134932 10 317 1.6 4.8 0.00 0.00 0.00 46 1013.4
20260506134437 10 186 1.6 3.2 0.00 0.00 0.00 46 1013.4
20260506133936 10 171 0.0 3.2 0.00 0.00 0.00 43 1013.5
20260506133436 10 264 0.0 1.6 0.00 0.00 0.00 39 1013.6
20260506132929 10 269 0.0 4.8 0.00 0.00 0.00 37 1013.5
20260506132435 10 7 3.2 4.8 0.00 0.00 0.00 36 1013.4
20260506131928 10 197 0.0 3.2 0.00 0.00 0.00 35 1013.4
20260506131409 11 310 1.6 6.4 0.00 0.00 0.00 35 1013.3
20260506130907 11 207 3.2 6.4 0.00 0.00 0.00 33 1013.2
20260506130405 10 172 1.6 9.7 0.00 0.00 0.00 33 1013.3
20260506125903 10 293 1.6 9.7 0.00 0.00 0.00 32 1013.2
20260506125408 10 319 3.2 9.7 0.00 0.00 0.00 32 1013.2
20260506124901 11 341 4.8 9.7 0.00 0.00 0.00 32 1013.3
20260506123902 11 347 1.6 6.4 0.00 0.00 0.00 32 1013.3
20260506122910 11 283 3.2 8.0 0.00 0.00 0.00 31 1013.3
20260506122413 11 326 3.2 8.0 0.00 0.00 0.00 30 1013.2
20260506121904 11 227 3.2 8.0 0.00 0.00 0.00 32 1013.2
20260506120907 11 288 3.2 6.4 0.00 0.00 0.00 33 1013.3
20260506120408 11 285 3.2 6.4 0.00 0.00 0.00 32 1013.3
20260506115904 11 333 4.8 8.0 0.00 0.00 0.00 31 1013.3
20260506115408 11 255 3.2 9.7 0.00 0.00 0.00 32 1013.2
20260506114906 11 324 3.2 9.7 0.00 0.00 0.00 31 1013.3
20260506114405 11 199 4.8 8.0 0.00 0.00 0.00 31 1013.3
20260506113404 11 313 1.6 4.8 0.00 0.00 0.00 33 1013.3
20260506112903 11 319 1.6 3.2 0.00 0.00 0.00 35 1013.2
20260506112404 10 90 1.6 3.2 0.00 0.00 0.00 35 1013.3
20260506111902 10 340 0.0 4.8 0.00 0.00 0.00 37 1013.4
20260506111408 10 223 0.0 4.8 0.00 0.00 0.00 36 1013.4
20260506110907 10 292 1.6 4.8 0.00 0.00 0.00 34 1013.5
20260506110406 10 248 1.6 4.8 0.00 0.00 0.00 33 1013.4
20260506105905 10 314 1.6 14.5 0.00 0.00 0.00 32 1013.3
20260506104906 11 353 6.4 9.7 0.00 0.00 0.00 30 1013.3
20260506103905 10 350 1.6 17.7 0.00 0.00 0.00 31 1013.3
20260506102906 11 331 6.4 11.3 0.00 0.00 0.00 32 1013.2
20260506102404 11 343 3.2 6.4 0.00 0.00 0.00 32 1013.1
20260506101903 11 350 3.2 8.0 0.00 0.00 0.00 32 1013.1
20260506100906 10 164 3.2 9.7 0.00 0.00 0.00 33 1013.2
20260506100404 10 323 3.2 9.7 0.00 0.00 0.00 32 1013.2
20260506095901 10 7 1.6 6.4 0.00 0.00 0.00 35 1013.2
20260506094903 10 0 3.2 9.7 0.00 0.00 0.00 34 1013.2
20260506094407 10 295 3.2 8.0 0.00 0.00 0.00 36 1013.0
20260506093902 10 0 4.8 8.0 0.00 0.00 0.00 35 1013.1
20260506092909 10 310 3.2 14.5 0.00 0.00 0.00 33 1013.1
20260506092404 11 21 4.8 8.0 0.00 0.00 0.00 33 1012.8
20260506091406 10 56 3.2 9.7 0.00 0.00 0.00 35 1012.8
20260506090903 10 336 1.6 9.7 0.00 0.00 0.00 35 1012.9
20260506090407 10 316 3.2 9.7 0.00 0.00 0.00 36 1012.9
20260506085404 10 306 4.8 9.7 0.00 0.00 0.00 36 1012.9
20260506084406 10 0 3.2 9.7 0.00 0.00 0.00 38 1012.8
20260506083903 10 306 1.6 9.7 0.00 0.00 0.00 38 1012.7
20260506083405 10 300 1.6 6.4 0.00 0.00 0.00 40 1012.8
20260506082906 10 235 3.2 6.4 0.00 0.00 0.00 38 1012.9
20260506082407 10 337 3.2 8.0 0.00 0.00 0.00 37 1012.9
20260506081903 10 316 4.8 14.5 0.00 0.00 0.00 37 1012.8
20260506081403 10 283 6.4 14.5 0.00 0.00 0.00 37 1012.7
20260506080904 9 340 1.6 9.7 0.00 0.00 0.00 40 1012.7
20260506080406 9 347 4.8 9.7 0.00 0.00 0.00 38 1012.7
20260506073407 9 282 1.6 9.7 0.00 0.00 0.00 43 1012.5
20260506072903 9 100 3.2 8.0 0.00 0.00 0.00 45 1012.5
20260506072407 9 319 3.2 11.3 0.00 0.00 0.00 44 1012.5
20260506071909 9 4 4.8 11.3 0.00 0.00 0.00 43 1012.5
20260506071404 9 264 3.2 6.4 0.00 0.00 0.00 47 1012.4
20260506070903 9 196 3.2 6.4 0.00 0.00 0.00 47 1012.4
20260506070404 8 324 1.6 8.0 0.00 0.00 0.00 48 1012.3
20260506062404 7 350 4.8 9.7 0.00 0.00 0.00 53 1012.2
20260506061905 7 307 6.4 9.7 0.00 0.00 0.00 56 1012.2
20260506061405 7 0 3.2 8.0 0.00 0.00 0.00 56 1012.2
20260506060902 7 357 1.6 6.4 0.00 0.00 0.00 60 1012.0
20260506060403 7 275 1.6 6.4 0.00 0.00 0.00 61 1012.0
20260506051407 5 285 3.2 4.8 0.00 0.00 0.00 71 1011.6
20260506050906 5 293 3.2 4.8 0.00 0.00 0.00 72 1011.5
20260506050405 4 302 1.6 4.8 0.00 0.00 0.00 72 1011.5
20260506044907 3 316 3.2 8.0 0.00 0.00 0.00 76 1011.3
20260506044408 3 252 1.6 4.8 0.00 0.00 0.00 78 1011.2
20260506043902 3 45 1.6 4.8 0.00 0.00 0.00 81 1011.2
20260506042907 2 285 0.0 3.2 0.00 0.00 0.00 82 1011.0
20260506042407 2 345 0.0 4.8 0.00 0.00 0.00 85 1011.1
20260506041906 1 303 0.0 4.8 0.00 0.00 0.00 85 1011.0
20260506041404 1 353 0.0 4.8 0.00 0.00 0.00 87 1011.0
20260506040902 1 355 1.6 4.8 0.00 0.00 0.00 87 1011.0
20260506040404 0 1 1.6 3.2 0.00 0.00 0.00 88 1011.0
20260506035906 0 252 0.0 1.6 0.00 0.00 0.00 88 1010.9
20260506034906 0 252 0.0 0.0 0.00 0.00 0.00 88 1010.8
20260506034405 0 252 0.0 0.0 0.00 0.00 0.00 88 1010.8
20260506033905 0 252 0.0 0.0 0.00 0.00 0.00 88 1010.7
20260506033403 0 252 0.0 0.0 0.00 0.00 0.00 88 1010.7
20260506032903 0 252 0.0 0.0 0.00 0.00 0.00 88 1010.6
20260506031906 0 252 0.0 0.0 0.00 0.00 0.00 88 1010.5
20260506030904 0 252 0.0 0.0 0.00 0.00 0.00 88 1010.4
20260506030402 -1 252 0.0 0.0 0.00 0.00 0.00 88 1010.4
20260506025408 -1 252 0.0 0.0 0.00 0.00 0.00 87 1010.3
20260506024908 -1 252 0.0 0.0 0.00 0.00 0.00 87 1010.2
20260506024402 -1 252 0.0 0.0 0.00 0.00 0.00 87 1010.1
20260506023905 -1 252 0.0 0.0 0.00 0.00 0.00 87 1010.1
20260506023406 -1 252 0.0 0.0 0.00 0.00 0.00 87 1010.0
20260506022903 -1 252 0.0 0.0 0.00 0.00 0.00 87 1010.0
20260506022405 -1 252 0.0 0.0 0.00 0.00 0.00 87 1009.9
20260506021403 -1 252 0.0 0.0 0.00 0.00 0.00 86 1009.8
20260506020905 -1 252 0.0 0.0 0.00 0.00 0.00 86 1009.8
20260506020402 -1 252 0.0 0.0 0.00 0.00 0.00 85 1009.9
20260506015904 -1 252 0.0 0.0 0.00 0.00 0.00 85 1009.7
20260506015402 -1 252 0.0 0.0 0.00 0.00 0.00 85 1009.7
20260506014902 -1 252 0.0 0.0 0.00 0.00 0.00 85 1009.7
20260506014402 -1 252 0.0 0.0 0.00 0.00 0.00 85 1009.7
20260506013905 -1 252 0.0 0.0 0.00 0.00 0.00 86 1009.6
20260506013406 -1 252 0.0 0.0 0.00 0.00 0.00 85 1009.6
20260506012902 0 252 0.0 0.0 0.00 0.00 0.00 85 1009.6
20260506012402 0 252 0.0 0.0 0.00 0.00 0.00 85 1009.5
20260506011902 0 252 0.0 0.0 0.00 0.00 0.00 84 1009.5
20260506011405 0 252 0.0 0.0 0.00 0.00 0.00 85 1009.5
20260506010905 0 252 0.0 0.0 0.00 0.00 0.00 84 1009.5
20260506010405 0 252 0.0 0.0 0.00 0.00 0.00 84 1009.4
20260506005906 0 252 0.0 0.0 0.00 0.00 0.00 84 1009.4
20260506005403 0 252 0.0 0.0 0.00 0.00 0.00 84 1009.3
20260506004902 0 252 0.0 0.0 0.00 0.00 0.00 84 1009.3
20260506003902 0 252 0.0 0.0 0.00 0.00 0.00 84 1009.2
20260506003402 0 252 0.0 0.0 0.00 0.00 0.00 84 1009.2
20260506002902 0 252 0.0 0.0 0.00 0.00 0.00 84 1009.1
20260506002405 0 252 0.0 0.0 0.00 0.00 0.00 84 1009.1
20260506001905 0 252 0.0 0.0 0.00 0.00 0.00 83 1009.1
20260506001402 0 252 0.0 0.0 0.00 0.00 0.00 83 1009.1
20260506000851 0 252 0.0 0.0 0.00 0.00 0.00 83 1009.1
20260506000333 0 252 0.0 0.0 0.00 0.00 0.00 83 1009.0
20260505235834 0 252 0.0 0.0 0.00 0.00 0.00 83 1008.9
20260505235332 0 252 0.0 0.0 0.00 0.00 0.00 83 1009.0
20260505234830 0 252 0.0 0.0 0.00 0.00 0.00 83 1008.9
20260505234329 0 252 0.0 0.0 0.00 0.00 0.00 83 1008.8
20260505233829 0 252 0.0 0.0 0.00 0.00 0.00 82 1008.9
20260505232832 0 252 0.0 1.6 0.00 0.00 0.00 83 1008.8
20260505232330 0 252 0.0 1.6 0.00 0.00 0.00 82 1008.9
20260505231832 0 252 0.0 1.6 0.00 0.00 0.00 82 1008.7
20260505231329 0 252 0.0 3.2 0.00 0.00 0.00 82 1008.7
20260505230830 0 262 0.0 3.2 0.00 0.00 0.00 82 1008.7
20260505230329 0 261 0.0 1.6 0.00 0.00 0.00 81 1008.7
20260505225829 0 261 0.0 0.0 0.00 0.00 0.00 81 1008.7
20260505225329 0 261 0.0 1.6 0.00 0.00 0.00 81 1008.6
20260505224833 0 261 0.0 1.6 0.00 0.00 0.00 81 1008.5
20260505224334 0 264 0.0 1.6 0.00 0.00 0.00 81 1008.6
20260505223829 1 264 0.0 1.6 0.00 0.00 0.00 80 1008.4
20260505223328 1 300 0.0 1.6 0.00 0.00 0.00 80 1008.5
20260505222832 1 300 0.0 1.6 0.00 0.00 0.00 80 1008.4
20260505222328 1 302 0.0 1.6 0.00 0.00 0.00 80 1008.5
20260505221829 1 302 0.0 1.6 0.00 0.00 0.00 80 1008.4
20260505215309 1 348 1.6 1.6 0.00 0.00 0.00 78 1008.2
20260505214808 1 348 0.0 1.6 0.00 0.00 0.00 77 1008.3
20260505214309 1 348 0.0 1.6 0.00 0.00 0.00 77 1008.2
20260505213805 1 348 0.0 0.0 0.00 0.00 0.00 77 1008.3
20260505213307 1 348 0.0 1.6 0.00 0.00 0.00 77 1008.3
20260505212810 1 348 0.0 1.6 0.00 0.00 0.00 76 1008.1
20260505212305 1 348 0.0 1.6 0.00 0.00 0.00 76 1008.1
20260505211806 2 357 0.0 1.6 0.00 0.00 0.00 76 1008.1
20260505211306 2 357 0.0 1.6 0.00 0.00 0.00 75 1008.0
20260505210804 2 357 0.0 1.6 0.00 0.00 0.00 74 1008.0
20260505210312 2 357 0.0 1.6 0.00 0.00 0.00 74 1007.9
20260505205305 2 344 0.0 3.2 0.00 0.00 0.00 74 1007.8
20260505204805 2 252 0.0 3.2 0.00 0.00 0.00 73 1007.7
20260505204315 2 128 0.0 3.2 0.00 0.00 0.00 72 1007.6
20260505203812 2 193 0.0 1.6 0.00 0.00 0.00 72 1007.5
20260505203307 2 203 0.0 1.6 0.00 0.00 0.00 72 1007.5
20260505202805 2 203 0.0 0.0 0.00 0.00 0.00 71 1007.4
20260505202307 2 203 0.0 0.0 0.00 0.00 0.00 71 1007.4
20260505201304 3 203 0.0 0.0 0.00 0.00 0.00 70 1007.4
20260505200803 3 203 0.0 0.0 0.00 0.00 0.00 70 1007.3
20260505195802 3 203 0.0 0.0 0.00 0.00 0.00 68 1007.2
20260505195305 3 203 0.0 0.0 0.00 0.00 0.00 68 1007.2
20260505194805 3 200 0.0 0.0 0.00 0.00 0.00 68 1007.2
20260505194306 3 200 0.0 0.0 0.00 0.00 0.00 66 1007.1
20260505193803 3 200 0.0 0.0 0.00 0.00 0.00 66 1007.1
20260505193304 4 200 0.0 0.0 0.00 0.00 0.00 65 1007.2
20260505192801 4 200 0.0 1.6 0.00 0.00 0.00 65 1007.1
20260505192306 4 200 0.0 1.6 0.00 0.00 0.00 64 1007.2
20260505191804 5 190 0.0 1.6 0.00 0.00 0.00 64 1007.1
20260505191303 5 179 0.0 3.2 0.00 0.00 0.00 62 1007.0
20260505185805 5 23 0.0 4.8 0.00 0.00 0.00 60 1006.8
20260505185305 5 307 1.6 4.8 0.00 0.00 0.00 59 1006.8
20260505184801 5 279 1.6 3.2 0.00 0.00 0.00 60 1006.7
20260505184301 5 252 0.0 3.2 0.00 0.00 0.00 58 1006.8
20260505183807 5 123 1.6 3.2 0.00 0.00 0.00 57 1006.7
20260505182257 6 272 0.0 1.6 0.00 0.00 0.00 54 1006.4
20260505181757 6 337 0.0 4.8 0.00 0.00 0.00 53 1006.4
20260505181301 6 289 1.6 4.8 0.00 0.00 0.00 54 1006.3
20260505180759 6 276 1.6 3.2 0.00 0.00 0.00 51 1006.2
20260505180233 6 62 1.6 3.2 0.00 0.00 0.00 50 1006.2
20260505175733 7 261 1.6 3.2 0.00 0.00 0.00 50 1006.1
20260505175231 7 265 0.0 4.8 0.00 0.00 0.00 50 1006.2
20260505174734 7 290 1.6 6.4 0.00 0.00 0.00 49 1006.1
20260505174231 7 0 3.2 6.4 0.00 0.00 0.00 49 1006.1
20260505173729 7 323 1.6 4.8 0.00 0.00 0.00 46 1006.0
20260505173233 7 305 1.6 6.4 0.00 0.00 0.00 46 1005.9
20260505172229 7 279 3.2 8.0 0.00 0.00 0.00 45 1005.9
20260505171733 7 230 4.8 8.0 0.00 0.00 0.00 47 1005.8
20260505170705 8 309 0.0 6.4 0.00 0.00 0.00 44 1005.8
20260505170205 8 296 1.6 6.4 0.00 0.00 0.00 45 1005.7
20260505165706 8 279 1.6 6.4 0.00 0.00 0.00 45 1005.7
20260505165206 8 307 3.2 6.4 0.00 0.00 0.00 44 1005.7
20260505164703 8 135 1.6 9.7 0.00 0.00 0.00 43 1005.8
20260505164202 8 28 3.2 14.5 0.00 0.00 0.00 43 1005.8
20260505163659 8 1 3.2 14.5 0.00 0.00 0.00 42 1005.7
20260505162703 8 209 1.6 6.4 0.00 0.00 0.00 43 1005.7
20260505162202 8 85 3.2 6.4 0.00 0.00 0.00 44 1005.6
20260505161659 9 302 3.2 8.0 0.00 0.00 0.00 44 1005.6
20260505161204 9 333 4.8 8.0 0.00 0.00 0.00 43 1005.6
20260505160201 9 224 3.2 8.0 0.00 0.00 0.00 44 1005.6
20260505153201 10 243 3.2 9.7 0.00 0.00 0.00 41 1005.3
20260505152703 10 331 3.2 9.7 0.00 0.00 0.00 41 1005.3
20260505152202 10 247 3.2 8.0 0.00 0.00 0.00 39 1005.2
20260505151704 10 135 4.8 8.0 0.00 0.00 0.00 40 1005.2
20260505151206 10 128 3.2 6.4 0.00 0.00 0.00 40 1005.1
20260505150702 10 357 0.0 8.0 0.00 0.00 0.00 42 1005.1
20260505150209 10 313 3.2 8.0 0.00 0.00 0.00 40 1005.2
20260505140206 10 348 6.4 11.3 0.00 0.00 0.00 41 1004.8